PACCTY-2 Weather Reports


Display with metric or nautical units.
time (UTC)temp
F
wind
direction
speed
MPH
gust
MPH
rain 1hr
in
rain 24hr
in
rain mn
in
humidity
%
barometer
mb
20260904103229 57 127 6.0 10.0 0.00 0.00 0.00 94 1007.8
20260904101726 57 126 6.0 9.0 0.00 0.00 0.00 94 1007.8
20260904101225 57 127 5.0 9.0 0.00 0.00 0.00 94 1007.8
20260904100724 57 127 1.0 9.0 0.00 0.00 0.00 94 1007.8
20260904100223 57 131 2.0 9.0 0.00 0.00 0.00 94 1007.8
20260904095722 57 130 3.0 12.0 0.00 0.00 0.00 94 1007.8
20260904095221 57 120 4.0 12.0 0.00 0.00 0.00 94 1007.8
20260904094219 57 126 6.0 9.0 0.00 0.00 0.00 94 1007.8
20260904092716 57 119 5.0 11.0 0.00 0.00 0.00 94 1007.6
20260904092215 57 124 8.0 11.0 0.00 0.00 0.00 94 1007.6
20260904091714 57 130 4.0 10.0 0.00 0.00 0.00 94 1007.5
20260904090211 57 131 5.0 15.0 0.00 0.00 0.00 95 1007.4
20260904085710 57 121 7.0 15.0 0.00 0.00 0.00 95 1007.3
20260904084708 57 134 5.0 17.0 0.00 0.00 0.00 95 1007.3
20260904084207 57 130 5.0 17.0 0.00 0.00 0.00 95 1007.3
20260904083706 57 124 9.0 17.0 0.00 0.00 0.00 95 1007.3
20260904082704 57 124 8.0 15.0 0.00 0.00 0.00 95 1007.4
20260904082203 57 126 9.0 15.0 0.00 0.00 0.00 95 1007.4
20260904081702 57 127 9.0 15.0 0.00 0.00 0.00 95 1007.4
20260904081201 57 130 10.0 20.0 0.00 0.00 0.00 95 1007.4
20260904080700 57 117 7.0 20.0 0.00 0.00 0.00 95 1007.4
20260904075658 57 130 12.0 18.0 0.00 0.00 0.00 95 1007.3
20260904075159 57 114 9.0 17.0 0.00 0.00 0.00 95 1007.3
20260904074656 57 124 9.0 17.0 0.00 0.00 0.00 95 1007.3
20260904074155 57 126 10.0 17.0 0.00 0.00 0.00 95 1007.3
20260904072652 57 119 7.0 13.0 0.00 0.00 0.00 95 1007.4
20260904071650 57 119 9.0 17.0 0.00 0.00 0.00 95 1007.3
20260904071149 57 131 9.0 17.0 0.00 0.00 0.00 95 1007.3
20260904070147 57 121 8.0 9.0 0.00 0.00 0.00 95 1007.3
20260904065646 57 0 0.0 0.0 0.00 0.00 0.00 95 1007.4
20260904064644 57 0 0.0 0.0 0.00 0.00 0.00 95 1007.4
20260904062640 57 0 0.0 0.0 0.00 0.00 0.00 95 1007.4
20260904062139 57 0 0.0 0.0 0.00 0.00 0.00 100 1007.4
20260904061638 57 0 0.0 0.0 0.00 0.00 0.00 95 1007.5
20260904061137 57 0 0.0 0.0 0.00 0.00 0.00 95 1007.5
20260904060636 57 0 0.0 0.0 0.00 0.00 0.00 95 1007.5
20260904060135 57 0 0.0 0.0 0.00 0.00 0.00 95 1007.5
20260904055133 57 0 0.0 0.0 0.00 0.00 0.00 95 1007.7
20260904054632 57 0 0.0 0.0 0.00 0.00 0.00 95 1007.6
20260904054131 57 0 0.0 0.0 0.00 0.00 0.00 95 1007.7
20260904053630 57 0 0.0 0.0 0.00 0.00 0.00 1007.8
20260904052628 57 0 0.0 0.0 0.00 0.00 0.00 95 1007.9
20260904052127 57 0 0.0 0.0 0.00 0.00 0.00 95 1007.8
20260904051626 57 0 0.0 0.0 0.00 0.00 0.00 95 1007.8
20260904051125 57 0 0.0 0.0 0.00 0.00 0.00 95 1007.7
20260904050624 57 0 0.0 0.0 0.00 0.00 0.00 95 1007.7
20260904050123 57 0 0.0 0.0 0.00 0.00 0.00 95 1007.8
20260904045622 58 0 0.0 0.0 0.00 0.00 0.00 95 1007.8
20260904045121 57 0 0.0 0.0 0.00 0.00 0.00 95 1007.7
20260904044620 58 0 0.0 0.0 0.00 0.00 0.00 95 1007.7
20260904044119 58 0 0.0 0.0 0.00 0.00 0.00 95 1007.7
20260904043619 58 0 0.0 0.0 0.00 0.00 0.00 95 1007.7
20260904043117 58 0 0.0 0.0 0.00 0.00 0.00 95 1007.8
20260904042617 58 0 0.0 0.0 0.00 0.00 0.00 95 1007.8
20260904042115 58 0 0.0 0.0 0.00 0.00 0.00 95 1007.8
20260904041614 58 0 0.0 0.0 0.00 0.00 0.00 95 1007.7
20260904041113 58 0 0.0 0.0 0.00 0.00 0.00 1007.8
20260904040111 58 0 0.0 0.0 0.00 0.00 0.00 95 1007.6
20260904035610 58 0 0.0 0.0 0.00 0.00 0.00 95 1007.6
20260904035109 58 0 0.0 0.0 0.00 0.00 0.00 95 1007.6
20260904034608 58 0 0.0 0.0 0.00 0.00 0.00 95 1007.5
20260904034107 58 0 0.0 0.0 0.00 0.00 0.00 95 1007.5
20260904033606 58 0 0.0 0.0 0.00 0.00 0.00 95 1007.5
20260904033105 58 0 0.0 0.0 0.00 0.00 0.00 95 1007.4
20260904032604 58 0 0.0 0.0 0.00 0.00 0.00 95 1007.3
20260904031602 58 0 0.0 0.0 0.00 0.00 0.00 1007.3
20260904031101 58 0 0.0 0.0 0.00 0.00 0.00 1007.3
20260904030600 58 0 0.0 0.0 0.00 0.00 0.00 1007.3
20260904030059 58 0 0.0 0.0 0.00 0.00 0.00 95 1007.2
20260904025558 59 0 0.0 0.0 0.00 0.00 0.00 1007.3
20260904025057 59 0 0.0 0.0 0.00 0.00 0.00 1007.3
20260904024556 59 0 0.0 0.0 0.00 0.00 0.00 1007.2
20260904024055 59 0 0.0 0.0 0.00 0.00 0.00 1007.2
20260904023053 59 0 0.0 0.0 0.00 0.00 0.00 1007.2
20260904022051 59 0 0.0 0.0 0.00 0.00 0.00 95 1007.2
20260904021550 59 0 0.0 0.0 0.00 0.00 0.00 95 1007.2
20260904020548 59 0 0.0 0.0 0.00 0.00 0.00 95 1007.2
20260904015546 59 0 0.0 0.0 0.00 0.00 0.00 95 1007.2
20260904015045 59 0 0.0 0.0 0.00 0.00 0.00 95 1007.1
20260904014544 59 0 0.0 0.0 0.00 0.00 0.00 95 1007.1
20260904014043 59 0 0.0 0.0 0.00 0.00 0.00 95 1007.1
20260904013542 59 0 0.0 0.0 0.00 0.00 0.00 95 1007.1
20260904012540 59 0 0.0 0.0 0.00 0.00 0.00 95 1007.2
20260904012039 59 0 0.0 0.0 0.00 0.00 0.00 95 1007.2
20260904011538 59 0 0.0 0.0 0.00 0.00 0.00 94 1007.2
20260904011037 59 0 0.0 0.0 0.00 0.00 0.00 95 1007.1
20260904010035 59 0 0.0 0.0 0.00 0.00 0.00 94 1007.2
20260904005534 59 0 0.0 0.0 0.00 0.00 0.00 94 1007.3
20260904005033 59 0 0.0 0.0 0.00 0.00 0.00 94 1007.3
20260904004532 59 0 0.0 0.0 0.00 0.00 0.00 94 1007.3
20260904003530 59 0 0.0 0.0 0.00 0.00 0.00 94 1007.3
20260904003029 59 0 0.0 0.0 0.00 0.00 0.00 94 1007.3
20260904002528 59 0 0.0 0.0 0.00 0.00 0.00 94 1007.3
20260904001526 59 0 0.0 0.0 0.00 0.00 0.00 94 1007.2
20260904001025 59 0 0.0 0.0 0.00 0.00 0.00 94 1007.3
20260904000524 59 0 0.0 0.0 0.00 0.00 0.00 94 1007.2
20260904000023 60 0 0.0 0.0 0.00 0.00 0.00 94 1007.2
20260903235522 60 0 0.0 0.0 0.00 0.00 0.00 94 1007.1
20260903235023 60 0 0.0 0.0 0.00 0.00 0.00 94 1007.1
20260903234520 60 0 0.0 0.0 0.00 0.00 0.00 94 1007.2
20260903234019 60 0 0.0 0.0 0.00 0.00 0.00 94 1007.3
20260903233518 60 0 0.0 0.0 0.00 0.00 0.00 94 1007.4
20260903232516 60 0 0.0 0.0 0.00 0.00 0.00 94 1007.4
20260903230512 60 0 0.0 0.0 0.00 0.00 0.00 1007.5
20260903230011 60 0 0.0 0.0 0.00 0.00 0.00 1007.5
20260903225510 60 0 0.0 0.0 0.00 0.00 0.00 1007.6
20260903225009 60 0 0.0 0.0 0.00 0.00 0.00 1007.5
20260903224508 60 0 0.0 0.0 0.00 0.00 0.00 1007.6
20260903224007 60 0 0.0 0.0 0.00 0.00 0.00 1007.5
20260903223506 60 0 0.0 0.0 0.00 0.00 0.00 100 1007.5
20260903223005 59 0 0.0 0.0 0.00 0.00 0.00 1007.5
20260903222504 59 0 0.0 0.0 0.00 0.00 0.00 1007.6
20260903222003 59 0 0.0 0.0 0.00 0.00 0.00 1007.6
20260903221502 59 0 0.0 0.0 0.00 0.00 0.00 1007.6
20260903221001 59 0 0.0 0.0 0.00 0.00 0.00 1007.4
20260903220500 60 0 0.0 0.0 0.00 0.00 0.00 1007.6
20260903215458 59 0 0.0 0.0 0.00 0.00 0.00 1007.4
20260903214456 60 0 0.0 0.0 0.00 0.00 0.00 1007.5
20260903213955 60 0 0.0 0.0 0.00 0.00 0.00 1007.6
20260903212953 60 0 0.0 0.0 0.00 0.00 0.00 1007.9
20260903210949 61 140 0.0 5.0 0.00 0.00 0.00 1007.6
20260903210448 61 186 0.0 10.0 0.00 0.00 0.00 1007.4
20260903205947 62 186 0.0 10.0 0.00 0.00 0.00 1007.4
20260903205446 62 152 1.0 10.0 0.00 0.00 0.00 1007.5
20260903204444 62 140 0.0 11.0 0.00 0.00 0.00 1007.4
20260903203442 60 137 0.0 11.0 0.00 0.00 0.00 1007.5
20260903202941 60 135 0.0 5.0 0.00 0.00 0.00 1007.4
20260903200937 60 161 0.0 7.0 0.00 0.00 0.00 1007.4
20260903200437 60 147 0.0 16.0 0.00 0.00 0.00 1007.4
20260903194432 60 145 6.0 13.0 0.00 0.00 0.00 1007.7
20260903193931 59 149 4.0 13.0 0.00 0.00 0.00 1007.7
20260903193430 59 179 5.0 11.0 0.00 0.00 0.00 1007.7
20260903192929 59 169 6.0 11.0 0.00 0.00 0.00 95 1007.8
20260903192428 59 117 3.0 11.0 0.00 0.00 0.00 95 1007.8
20260903190925 59 123 6.0 9.0 0.00 0.00 0.00 95 1007.7
20260903190425 59 133 5.0 9.0 0.00 0.00 0.00 95 1007.8
20260903185923 59 130 5.0 9.0 0.00 0.00 0.00 95 1007.8
20260903185422 58 133 3.0 9.0 0.00 0.00 0.00 1008.0
20260903182917 57 131 6.0 9.0 0.00 0.00 0.00 95 1007.9
20260903181915 57 135 3.0 10.0 0.00 0.00 0.00 95 1008.0
20260903181414 56 138 4.0 10.0 0.00 0.00 0.00 95 1008.1
20260903180913 56 149 4.0 9.0 0.00 0.00 0.00 95 1008.1
20260903180412 56 142 4.0 14.0 0.00 0.00 0.00 95 1008.2
20260903175911 56 161 2.0 14.0 0.00 0.00 0.00 95 1008.2
20260903175410 56 138 2.0 14.0 0.00 0.00 0.00 95 1008.1
20260903174909 56 133 6.0 11.0 0.00 0.00 0.00 95 1008.0
20260903174408 56 151 7.0 11.0 0.00 0.00 0.00 95 1008.0
20260903173907 56 131 4.0 10.0 0.00 0.00 0.00 95 1008.1
20260903173406 55 137 5.0 12.0 0.00 0.00 0.00 95 1008.0
20260903172905 55 133 6.0 12.0 0.00 0.00 0.00 95 1008.1
20260903171402 55 173 5.0 12.0 0.00 0.00 0.00 95 1008.3
20260903170901 55 169 2.0 12.0 0.00 0.00 0.00 95 1008.1
20260903170400 55 176 4.0 12.0 0.00 0.00 0.00 95 1008.3
20260903165859 55 163 9.0 9.0 0.00 0.00 0.00 95 1008.2
20260903164857 55 141 2.0 8.0 0.00 0.00 0.00 95 1008.2
20260903164356 55 170 5.0 17.0 0.00 0.00 0.00 95 1008.2
20260903163354 56 203 4.0 17.0 0.00 0.00 0.00 95 1008.3
20260903162853 56 218 12.0 16.0 0.00 0.00 0.00 95 1008.2
20260903161851 56 190 7.0 19.0 0.00 0.00 0.00 95 1008.3
20260903160849 56 198 13.0 14.0 0.00 0.00 0.00 95 1008.5
20260903160348 56 229 10.0 24.0 0.00 0.00 0.00 95 1008.3
20260903155346 56 240 11.0 24.0 0.00 0.00 0.00 95 1008.0
20260903154344 56 270 15.0 28.0 0.00 0.00 0.00 95 1007.6
20260903153843 56 243 20.0 28.0 0.00 0.00 0.00 95 1007.5
20260903153342 56 194 20.0 20.0 0.00 0.00 0.00 1007.8
20260903151341 56 190 13.0 17.0 0.00 0.00 0.00 95 1007.8
20260903145334 57 152 6.0 12.0 0.00 0.00 0.00 95 1007.3
20260903144833 57 145 5.0 12.0 0.00 0.00 0.00 95 1007.3
20260903144332 57 137 5.0 12.0 0.00 0.00 0.00 95 1007.4
20260903142830 57 182 4.0 11.0 0.00 0.00 0.00 95 1007.3
20260903142328 57 149 3.0 14.0 0.00 0.00 0.00 95 1007.4
20260903140825 57 182 5.0 12.0 0.00 0.00 0.00 95 1007.3
20260903140324 57 163 3.0 12.0 0.00 0.00 0.00 95 1007.4
20260903134821 57 161 3.0 10.0 0.00 0.00 0.00 95 1007.3
20260903134320 57 144 5.0 14.0 0.00 0.00 0.00 95 1007.2
20260903132817 57 170 9.0 14.0 0.00 0.00 0.00 95 1007.2
20260903132316 58 182 7.0 15.0 0.00 0.00 0.00 95 1007.2
20260903131314 58 180 6.0 15.0 0.00 0.00 0.00 95 1007.1
20260903130312 58 184 11.0 25.0 0.00 0.00 0.00 95 1007.0
20260903125811 58 175 16.0 25.0 0.00 0.00 0.00 95 1007.1
20260903125310 58 190 9.0 14.0 0.00 0.00 0.00 95 1007.1
20260903124308 58 166 4.0 14.0 0.00 0.00 0.00 95 1007.0
20260903123807 58 198 2.0 12.0 0.00 0.00 0.00 94 1007.1
20260903122805 58 207 4.0 14.0 0.00 0.00 0.00 95 1007.1
20260903122305 58 212 2.0 14.0 0.00 0.00 0.00 95 1007.1
20260903120259 58 182 15.0 28.0 0.00 0.00 0.00 95 1007.3
20260903115759 58 166 17.0 28.0 0.00 0.00 0.00 95 1007.3
20260903115258 58 205 17.0 28.0 0.00 0.00 0.00 95 1007.4
20260903114757 58 197 17.0 27.0 0.00 0.00 0.00 95 1007.5
20260903113755 58 168 13.0 30.0 0.00 0.00 0.00 95 1007.6
20260903111751 58 182 17.0 27.0 0.00 0.00 0.00 95 1007.6
20260903110749 57 179 13.0 22.0 0.00 0.00 0.00 94 1007.6
20260903110247 57 198 12.0 19.0 0.00 0.00 0.00 94 1007.6
20260903104243 59 176 14.0 24.0 0.00 0.00 0.00 94 1007.7